Location: Cantaing
(50.1487°N, 3.1675°E)
Time: 09:15:53
(UTC+00:00)

Cosmos 2228 Rocket - Pass Details

Date: 14 January 2026
Orbit: 612 x 647 km, 82.5° (Epoch: 17 February)

Event Time Altitude Azimuth Distance (km) Brightness Sun altitude
Rises 06:59:11 0° 344° (NNW) 2,907 6.1 -6.7°
Reaches altitude 10° 07:01:31 10° 337° (NNW) 1,991 5.2 -6.4°
Maximum altitude 07:05:38 41° 268° (W) 903 3.5 -5.8°
Drops below altitude 10° 07:09:43 10° 198° (SSW) 1,966 5.8 -5.2°
Sets 07:12:00 0° 191° (SSW) 2,865 6.7 -4.9°
